This demonstration page uses our WeatherBlox Daily Observations layout. Learn more.

Left ArrowRight Arrow

Hourly Observations for April 19, 2022

Temp ( °F °C ) Dew Point ( °F °C ) Humidity (%) Winds ( mph kmh ) Pressure ( in mb ) Visibility ( mi km ) Precip ( " mm )
12:56 am 00:56 Clear 37 2.5 13 -10.7 37 37 ENE 5 7 30.38 1029 10 16 0.00 0.00
1:05 am 01:05 Clear 36 2.2 13 -10.7 38 38 ENE 6 9 30.38 1029 10 16 0.00 0.00
1:56 am 01:56 Clear 34 1.3 14 -10.2 42 42 E 3 6 30.37 1029 10 16 0.00 0.00
2:56 am 02:56 Clear 32 -0.1 17 -8.1 55 55 ENE 7 11 30.35 1028 10 16 0.00 0.00
2:57 am 02:57 Clear 32 -0.1 17 -8.1 55 55 VRB 3 6 30.35 1028 10 16 0.00 0.00
3:56 am 03:56 Clear 32 -0.2 17 -8.4 54 54 Calm 30.35 1028 10 16 0.00 0.00
4:56 am 04:56 Clear 30 -1.1 18 -7.9 60 60 ESE 3 6 30.35 1028 10 16 0.00 0.00
5:56 am 05:56 Clear 30 -1.2 19 -7.1 65 65 Calm 30.32 1027 10 16 0.00 0.00
6:56 am 06:56 Sunny 29 -1.8 18 -7.7 64 64 SSE 5 7 30.34 1027 9 14 0.00 0.00
7:56 am 07:56 undefined 32 -0.1 19 -7.2 59 59 SE 8 13 30.34 1027 10 16 0.00 0.00
8:56 am 08:56 Cloudy 34 1.2 18 -7.6 52 52 SE 13 20 30.32 1027 10 16 0.00 0.00
9:56 am 09:56 Cloudy 37 2.5 17 -8.2 46 46 SE 12 19 30.28 1026 10 16 0.00 0.00
10:56 am 10:56 Cloudy 38 3.4 19 -7.4 45 45 SE 15 24 30.28 1025 9 14 0.00 0.00
11:56 am 11:56 Cloudy 39 4 20 -6.9 45 45 SE 14 22 30.25 1024 10 16 0.00 0.00
12:56 pm 12:56 Cloudy 40 4.6 20 -6.9 43 43 SE 10 17 30.21 1023 10 16 0.00 0.00
1:56 pm 13:56 Cloudy 43 6.1 20 -6.5 40 40 SE 20 31 30.16 1021 9 14 0.00 0.00
2:56 pm 14:56 Cloudy 46 7.8 22 -5.3 39 39 SE 23 37 30.09 1019 9 14 0.00 0.00
3:56 pm 15:56 Cloudy 49 9.5 23 -5.2 35 35 SE 20 31 30.02 1017 7 11 0.00 0.00
4:56 pm 16:56 Cloudy 51 10.7 22 -5.3 32 32 SE 24 39 29.98 1015 7 11 0.00 0.00
5:56 pm 17:56 Cloudy 52 11 22 -5.5 31 31 SSE 21 33 29.98 1015 9 14 0.00 0.00
6:56 pm 18:56 Cloudy 52 11 24 -4.7 33 33 SSE 16 26 29.97 1015 10 16 0.00 0.00
7:56 pm 19:56 Cloudy 51 10.7 25 -3.8 36 36 SE 15 24 29.96 1015 10 16 0.00 0.00
8:56 pm 20:56 Cloudy 51 10.6 25 -3.9 36 36 SE 20 31 29.93 1014 10 16 0.00 0.00
9:56 pm 21:56 Cloudy 51 10.7 27 -3 38 38 SSE 18 30 29.93 1013 10 16 0.00 0.00
10:56 pm 22:56 Cloudy 51 10.7 30 -1.1 44 44 SSE 20 31 29.91 1013 10 16 0.00 0.00
11:56 pm 23:56 Cloudy 51 10.5 29 -1.9 42 42 SE 18 30 29.88 1012 10 16 0.00 0.00

Powered by AerisWeather